Other Public Products
Issued by NWS Charleston, SC

Current Version | Previous Version | Graphics & Text | Print | Product List | Glossary On
Versions: 1 2 3 4 5 6 7 8 9 10 11 12 13 14 15 16 17 18 19 20 21 22 23 24 25 26 27 28 29 30 31 32 33 34 35 36 37 38 39 40 41 42 43 44 45 46 47 48 49 50
770 FPUS82 KCHS 222012 OPUCHS TEST...KCHS/KSAV Gateway Observations...TEST National Weather Service Charleston SC 400 PM EDT SAT JUL 22 2017 NOTE: "fair" indicates few or no clouds below 12,000 feet with no significant weather and/or obstructions to visibility. SCZ050-WAZ558-NCZ071-TXZ119-213-PAZ071-DCZ001-FLZ074-172-MI076- NYZ176-178-MAZ016-IL014-TNZ027-NJZ106-GAZ044-MD014-222100- ...Gateway Observations for Charleston International... CITY SKY/WX TMP DP RH WIND PRES REMARKS Chas Airport MOSUNNY 92 75 57 S12 29.95F HX 103 Seattle MOSUNNY 78 58 49 VRB6 30.17F Charlotte MOSUNNY 95 72 47 SW10 29.94F HX 103 Dallas DFW MOSUNNY 99 69 37 VRB5 29.88F HX 105 Dallas Love MOSUNNY 98 69 38 SW8 29.88F HX 104 Philladelphia CLOUDY 92 66 42 VRB6 29.78F HX 94 Wash National CLOUDY 78 73 84 W6 29.84F Baltimore LGT RAIN 74 71 91 W8 29.81F Miami PTSUNNY 89 72 56 E8 30.05F HX 96 Detroit PTSUNNY 86 73 65 SW9 29.74F HX 93 Newark PTSUNNY 90 63 40 S6 29.78F HX 91 Laguardia CLOUDY 88 65 46 NE10 29.79F HX 90 J F K PTSUNNY 86 67 52 S9 29.81F Boston Logan CLOUDY 77 62 59 E9 29.80F Ft. Lauderdale CLOUDY 86 73 65 SE10 30.04F HX 93 Chicago O`Hare CLOUDY 84 69 60 NW8 29.81F Chicago Midway PTSUNNY 85 68 56 NW10 29.81F Houston Bush CLOUDY 91 72 53 SE9 29.93F HX 98 Houston Hobby CLOUDY 92 76 59 S9 29.94F HX 104 Nashville MOSUNNY 97 72 44 VRB6 29.93F HX 105 Atlanta TSTM 78 71 79 NW17G29 29.99S $$ GAZ044-118-TXZ119-213-NCZ071-DCZ001-MDZ014-506-PAZ021-071-NJZ106- NYZ176-178-MAZ106-OHZ011-021-055-MIZ076-KYZ091-ILZ014-INZ047- MNZ060-ONZ431-222100- ...Gateway Observations for Savannah International... CITY SKY/WX TMP DP RH WIND PRES REMARKS Savannah Arpt MOSUNNY 92 70 48 S9 29.96F HX 97 Atlanta TSTM 78 71 79 NW17G29 29.99S Charlotte MOSUNNY 95 72 47 SW10 29.94F HX 103 Dallas DFW MOSUNNY 99 69 37 VRB5 29.88F HX 105 Houston Bush CLOUDY 91 72 53 SE9 29.93F HX 98 Wash National CLOUDY 78 73 84 W6 29.84F Wash Dulles CLOUDY 80 70 71 CALM 29.84F Baltimore LGT RAIN 74 71 91 W8 29.81F Philadelphia CLOUDY 92 66 42 VRB6 29.78F HX 94 Newark PTSUNNY 90 63 40 S6 29.78F HX 91 Laguardia CLOUDY 88 65 46 NE10 29.79F HX 90 J F K PTSUNNY 86 67 52 S9 29.81F Boston CLOUDY 77 62 59 E9 29.80F Pittsburg CLOUDY 75 71 87 SW8 29.82F Akron CLOUDY 78 70 76 SW10 29.81F Cleveland CLOUDY 82 73 74 VRB6 29.79F Cincinnati PTSUNNY 88 77 69 SW9 29.83R HX 100 Columbus PTSUNNY 85 79 82 W5 29.77F HX 99 Detroit PTSUNNY 86 73 65 SW9 29.74F HX 93 Chicago O`Hare CLOUDY 84 69 60 NW8 29.81F Minneapolis PTSUNNY 88 69 53 W9 29.81S HX 92 Indianapolis CLOUDY 90 73 57 NW12 29.83S HX 98 Toronto Canada CLOUDY 75 61 60 S6 29.81F $$

USA.gov is the U.S. government's official web portal to all federal, state and local government web resources and services.